HYPERVIEW 1G (RS66S)

Last updated on Fri Dec 19 2025 00:03:12 GMT+0000 (Coordinated Universal Time)

1 61772U 24199AP 25352.62485361 .00036817 00000+0 69564-3 0 9997 2 61772 97.3207 222.1352 0008201 210.2118 149.8660 15.48308416106524
UTC large
Height (km)
Speed (km/s)
/
Latitude / Longitude
Inclination (degrees)
Orbital Period (minutes)
Azimuth
Elevation
Range (km)
Doppler Factor

Next 0 passes for location: London (51.5072 / 0.1276)

Sorry there are no passes over London.